Location: ??????
(41.3164°N, 22.6615°E)
Time: 12:53:29
(UTC+00:00)

CAS-4A - Pass Details

Date: 13 July 2022
Orbit: 521 x 537 km, 43.0° (Epoch: 13 August)

Event Time Altitude Azimuth Distance (km) Brightness Sun altitude
Rises 19:55:22 0° 253° (WSW) 2,642 ? -16.9°
Reaches altitude 10° 19:57:35 10° 254° (WSW) 1,753 ? -17.1°
Maximum altitude 20:01:36 88° 166° (SSE) 525 ? -17.6°
Enters shadow 20:04:51 15° 76° (ENE) 1,454 ? -18.0°
